sat.trackr.live / text

‹ back to catalog

INTELSAT 15 (IS-15)

NORAD 36106 · 2009-067A

PAYLOAD ACTIVE UNKNOWN

§ Identity

Operator
Country
ITSO
Launch date
2009-11-30
Launch site
TYMSC
Launch vehicle
Mass (kg)
RCS (m²)
12.59

Purposes: comms

External: N2YO · Heavens-Above · Gunter

§ Orbital elements

Epoch: 2026-09-10T00:43:26.808096Z

Period
1,436.16 min
Inclination
0.0204°
Eccentricity
0.0002254
Mean motion
1.00267594 rev/d
Perigee alt
35,778.3 km
Apogee alt
35,797.3 km
Semi-major
42,165.9 km
B*
0.0000e+0
RAAN
171.0599°
Arg perigee
7.2108°
Mean anomaly
266.8055°
Rev number
4,207

§ Raw data

INTELSAT 15 (IS-15)1 36106U 09067A   26253.03017139  .00000000  00000+0  00000+0 0  99982 36106   0.0204 171.0599 0002254   7.2108 266.8055  1.00267594 42076

JSON: /api/v1/satellites/36106 · /tle

For live sub-satellite position, see the globe view (requires WebGL).

§ Visibility from observer

Set your observer location to see the next 7 days of passes ≥ 10°. The values pass through the URL so the page stays shareable.

No JS? Fill the form by hand. The geolocation button needs JavaScript.